Time,TemperatureF,DewpointF,PressureIn,WindDirection,WindDirectionDegrees,WindSpeedMPH,WindSpeedGustMPH,Humidity,HourlyPrecipIn,Conditions,Clouds,dailyrainin,SolarRadiationWatts/m^2,SoftwareType,DateUTC
2013-02-11 00:01:00,37.0,29.0,-100.00,WSW,246,2.0,8.0,74,0.00,,,0.00,0.000000,,2013-02-11 08:01:00,
2013-02-11 00:11:00,37.0,29.0,-100.00,WSW,246,2.0,8.0,74,0.00,,,0.00,0.000000,,2013-02-11 08:11:00,
2013-02-11 00:21:00,37.0,29.0,-100.00,WSW,246,2.0,8.0,74,0.00,,,0.00,0.000000,,2013-02-11 08:21:00,
2013-02-11 00:31:00,37.0,29.0,-100.00,WSW,246,2.0,8.0,74,0.00,,,0.00,0.000000,,2013-02-11 08:31:00,
2013-02-11 01:01:00,36.0,28.0,-100.00,SW,221,2.0,8.0,72,0.00,,,0.00,0.000000,,2013-02-11 09:01:00,
2013-02-11 01:12:00,36.0,28.0,-100.00,SW,221,2.0,8.0,72,0.00,,,0.00,0.000000,,2013-02-11 09:12:00,
2013-02-11 01:21:00,36.0,28.0,-100.00,SW,221,2.0,8.0,72,0.00,,,0.00,0.000000,,2013-02-11 09:21:00,
2013-02-11 01:31:00,36.0,28.0,-100.00,SW,221,2.0,8.0,72,0.00,,,0.00,0.000000,,2013-02-11 09:31:00,
2013-02-11 01:52:00,37.0,29.0,-100.00,South,183,0.0,8.0,74,0.00,,,0.00,0.000000,,2013-02-11 09:52:00,
2013-02-11 02:01:00,37.0,29.0,-100.00,South,183,0.0,8.0,74,0.00,,,0.00,0.000000,,2013-02-11 10:01:00,
2013-02-11 02:11:00,37.0,29.0,-100.00,South,183,0.0,8.0,74,0.00,,,0.00,0.000000,,2013-02-11 10:11:00,
2013-02-11 02:21:00,37.0,29.0,-100.00,South,183,0.0,8.0,74,0.00,,,0.00,0.000000,,2013-02-11 10:21:00,
2013-02-11 02:31:00,37.0,29.0,-100.00,South,183,0.0,8.0,74,0.00,,,0.00,0.000000,,2013-02-11 10:31:00,
2013-02-11 02:52:00,35.0,29.0,-100.00,East,96,1.0,11.0,80,0.00,,,0.00,0.000000,,2013-02-11 10:52:00,
2013-02-11 03:01:00,35.0,29.0,-100.00,East,96,1.0,11.0,80,0.00,,,0.00,0.000000,,2013-02-11 11:01:00,
2013-02-11 03:11:00,35.0,29.0,-100.00,East,96,1.0,11.0,80,0.00,,,0.00,0.000000,,2013-02-11 11:11:00,
2013-02-11 03:22:00,35.0,29.0,-100.00,East,96,1.0,11.0,80,0.00,,,0.00,0.000000,,2013-02-11 11:22:00,
2013-02-11 03:32:00,35.0,29.0,-100.00,East,96,1.0,11.0,80,0.00,,,0.00,0.000000,,2013-02-11 11:32:00,
2013-02-11 03:52:00,33.0,30.0,-100.00,WNW,290,0.0,5.0,89,0.00,,,0.00,0.000000,,2013-02-11 11:52:00,
2013-02-11 04:03:00,33.0,30.0,-100.00,WNW,290,0.0,5.0,89,0.00,,,0.00,0.000000,,2013-02-11 12:03:00,
2013-02-11 04:12:00,33.0,30.0,-100.00,WNW,290,0.0,5.0,89,0.00,,,0.00,0.000000,,2013-02-11 12:12:00,
2013-02-11 04:22:00,33.0,30.0,-100.00,WNW,290,0.0,5.0,89,0.00,,,0.00,0.000000,,2013-02-11 12:22:00,
2013-02-11 04:31:00,33.0,30.0,-100.00,WNW,290,0.0,5.0,89,0.00,,,0.00,0.000000,,2013-02-11 12:31:00,
2013-02-11 04:52:00,32.0,29.0,-100.00,North,8,0.0,5.0,88,0.00,,,-99.99,0.000000,,2013-02-11 12:52:00,
2013-02-11 05:01:00,32.0,29.0,-100.00,North,8,0.0,5.0,88,0.00,,,-99.99,0.000000,,2013-02-11 13:01:00,
2013-02-11 05:11:00,32.0,29.0,-100.00,North,8,0.0,5.0,88,0.00,,,-99.99,0.000000,,2013-02-11 13:11:00,
2013-02-11 05:21:00,32.0,29.0,-100.00,North,8,0.0,5.0,88,0.00,,,-99.99,0.000000,,2013-02-11 13:21:00,
2013-02-11 05:32:00,32.0,29.0,-100.00,North,8,0.0,5.0,88,0.00,,,-99.99,0.000000,,2013-02-11 13:32:00,
2013-02-11 05:52:00,38.0,21.0,-100.00,SW,232,2.0,12.0,49,0.00,,,-99.99,0.000000,,2013-02-11 13:52:00,
2013-02-11 06:01:00,38.0,21.0,-100.00,SW,232,2.0,12.0,49,0.00,,,-99.99,0.000000,,2013-02-11 14:01:00,
2013-02-11 06:11:00,38.0,21.0,-100.00,SW,232,2.0,12.0,49,0.00,,,-99.99,0.000000,,2013-02-11 14:11:00,
2013-02-11 06:21:00,38.0,21.0,-100.00,SW,232,2.0,12.0,49,0.00,,,-99.99,0.000000,,2013-02-11 14:21:00,
2013-02-11 06:32:00,38.0,21.0,-100.00,SW,232,2.0,12.0,49,0.00,,,-99.99,0.000000,,2013-02-11 14:32:00,
2013-02-11 06:53:00,34.0,21.0,-100.00,SW,230,2.0,12.0,58,0.00,,,0.00,0.000000,,2013-02-11 14:53:00,
2013-02-11 07:01:00,34.0,21.0,-100.00,SW,230,2.0,12.0,58,0.00,,,0.00,0.000000,,2013-02-11 15:01:00,
2013-02-11 07:11:00,34.0,21.0,-100.00,SW,230,2.0,12.0,58,0.00,,,0.00,0.000000,,2013-02-11 15:11:00,
2013-02-11 07:22:00,34.0,21.0,-100.00,SW,230,2.0,12.0,58,0.00,,,0.00,0.000000,,2013-02-11 15:22:00,
2013-02-11 07:31:00,34.0,21.0,-100.00,SW,230,2.0,12.0,58,0.00,,,0.00,0.000000,,2013-02-11 15:31:00,
2013-02-11 07:52:00,38.0,19.0,-100.00,SW,221,4.0,16.0,46,0.00,,,0.00,28.000000,,2013-02-11 15:52:00,
2013-02-11 08:01:00,38.0,19.0,-100.00,SW,221,4.0,16.0,46,0.00,,,0.00,28.000000,,2013-02-11 16:01:00,
2013-02-11 08:11:00,38.0,19.0,-100.00,SW,221,4.0,16.0,46,0.00,,,0.00,28.000000,,2013-02-11 16:11:00,
2013-02-11 08:52:00,47.0,18.0,-100.00,ESE,118,7.0,13.0,31,0.00,,,-99.99,316.000000,,2013-02-11 16:52:00,
2013-02-11 09:01:00,47.0,18.0,-100.00,ESE,118,7.0,13.0,31,0.00,,,-99.99,316.000000,,2013-02-11 17:01:00,
2013-02-11 10:01:00,47.0,21.0,-100.00,ESE,108,8.0,16.0,35,0.00,,,0.00,562.000000,,2013-02-11 18:01:00,
2013-02-11 10:11:00,47.0,21.0,-100.00,ESE,108,8.0,16.0,35,0.00,,,0.00,562.000000,,2013-02-11 18:11:00,
2013-02-11 10:21:00,47.0,21.0,-100.00,ESE,108,8.0,16.0,35,0.00,,,0.00,562.000000,,2013-02-11 18:21:00,
2013-02-11 10:31:00,47.0,21.0,-100.00,ESE,108,8.0,16.0,35,0.00,,,0.00,562.000000,,2013-02-11 18:31:00,
2013-02-11 10:53:00,52.0,16.0,-100.00,SE,133,9.0,19.0,24,0.00,,,0.00,753.000000,,2013-02-11 18:53:00,
2013-02-11 11:01:00,52.0,16.0,-100.00,SE,133,9.0,19.0,24,0.00,,,0.00,753.000000,,2013-02-11 19:01:00,
2013-02-11 11:11:00,52.0,16.0,-100.00,SE,133,9.0,19.0,24,0.00,,,0.00,753.000000,,2013-02-11 19:11:00,
2013-02-11 11:21:00,52.0,16.0,-100.00,SE,133,9.0,19.0,24,0.00,,,0.00,753.000000,,2013-02-11 19:21:00,
2013-02-11 11:31:00,52.0,16.0,-100.00,SE,133,9.0,19.0,24,0.00,,,0.00,753.000000,,2013-02-11 19:31:00,
2013-02-11 12:01:00,56.0,12.0,-100.00,SE,129,2.0,16.0,17,0.00,,,0.00,883.000000,,2013-02-11 20:01:00,
2013-02-11 13:02:00,53.0,9.0,-100.00,SSE,156,11.0,22.0,17,-99.99,,,0.00,925.000000,,2013-02-11 21:02:00,
2013-02-11 13:11:00,53.0,9.0,-100.00,SSE,156,11.0,22.0,17,-99.99,,,0.00,925.000000,,2013-02-11 21:11:00,
2013-02-11 13:21:00,53.0,9.0,-100.00,SSE,156,11.0,22.0,17,-99.99,,,0.00,925.000000,,2013-02-11 21:21:00,
2013-02-11 13:31:00,53.0,9.0,-100.00,SSE,156,11.0,22.0,17,-99.99,,,0.00,925.000000,,2013-02-11 21:31:00,
2013-02-11 13:52:00,52.0,11.0,-100.00,SW,225,9.0,22.0,19,0.00,,,0.00,885.000000,,2013-02-11 21:52:00,
2013-02-11 14:01:00,52.0,11.0,-100.00,SW,225,9.0,22.0,19,0.00,,,0.00,885.000000,,2013-02-11 22:01:00,
2013-02-11 14:11:00,52.0,11.0,-100.00,SW,225,9.0,22.0,19,0.00,,,0.00,885.000000,,2013-02-11 22:11:00,
2013-02-11 14:21:00,52.0,11.0,-100.00,SW,225,9.0,22.0,19,0.00,,,0.00,885.000000,,2013-02-11 22:21:00,
2013-02-11 14:31:00,52.0,11.0,-100.00,SW,225,9.0,22.0,19,0.00,,,0.00,885.000000,,2013-02-11 22:31:00,
2013-02-11 14:52:00,53.0,8.0,-100.00,SW,215,7.0,25.0,16,0.00,,,0.00,772.000000,,2013-02-11 22:52:00,
2013-02-11 15:01:00,53.0,8.0,-100.00,SW,215,7.0,25.0,16,0.00,,,0.00,772.000000,,2013-02-11 23:01:00,
2013-02-11 15:11:00,53.0,8.0,-100.00,SW,215,7.0,25.0,16,0.00,,,0.00,772.000000,,2013-02-11 23:11:00,
2013-02-11 15:21:00,53.0,8.0,-100.00,SW,215,7.0,25.0,16,0.00,,,0.00,772.000000,,2013-02-11 23:21:00,
2013-02-11 15:31:00,53.0,8.0,-100.00,SW,215,7.0,25.0,16,0.00,,,0.00,772.000000,,2013-02-11 23:31:00,
2013-02-11 15:52:00,52.0,9.0,-100.00,North,4,6.0,26.0,17,0.00,,,0.00,566.000000,,2013-02-11 23:52:00,
2013-02-11 16:01:00,52.0,9.0,-100.00,North,4,6.0,26.0,17,0.00,,,0.00,566.000000,,2013-02-12 00:01:00,
2013-02-11 16:11:00,52.0,9.0,-100.00,North,4,6.0,26.0,17,0.00,,,0.00,566.000000,,2013-02-12 00:11:00,
2013-02-11 16:21:00,52.0,9.0,-100.00,North,4,6.0,26.0,17,0.00,,,0.00,566.000000,,2013-02-12 00:21:00,
2013-02-11 16:31:00,52.0,9.0,-100.00,North,4,6.0,26.0,17,0.00,,,0.00,566.000000,,2013-02-12 00:31:00,
2013-02-11 17:01:00,49.0,6.0,-100.00,South,170,11.0,29.0,17,0.00,,,0.00,45.000000,,2013-02-12 01:01:00,
2013-02-11 17:11:00,49.0,6.0,-100.00,South,170,11.0,29.0,17,0.00,,,0.00,45.000000,,2013-02-12 01:11:00,
2013-02-11 17:21:00,49.0,6.0,-100.00,South,170,11.0,29.0,17,0.00,,,0.00,45.000000,,2013-02-12 01:21:00,
2013-02-11 17:31:00,49.0,6.0,-100.00,South,170,11.0,29.0,17,0.00,,,0.00,45.000000,,2013-02-12 01:31:00,
2013-02-11 17:52:00,46.0,1.0,-100.00,SSW,208,2.0,18.0,15,0.00,,,0.00,38.000000,,2013-02-12 01:52:00,
2013-02-11 18:01:00,46.0,1.0,-100.00,SSW,208,2.0,18.0,15,0.00,,,0.00,38.000000,,2013-02-12 02:01:00,
2013-02-11 18:52:00,40.0,12.0,-100.00,WSW,255,1.0,10.0,31,0.00,,,0.00,0.000000,,2013-02-12 02:52:00,
2013-02-11 19:02:00,40.0,12.0,-100.00,WSW,255,1.0,10.0,31,0.00,,,0.00,0.000000,,2013-02-12 03:02:00,
2013-02-11 19:11:00,40.0,12.0,-100.00,WSW,255,1.0,10.0,31,0.00,,,0.00,0.000000,,2013-02-12 03:11:00,
2013-02-11 19:21:00,40.0,12.0,-100.00,WSW,255,1.0,10.0,31,0.00,,,0.00,0.000000,,2013-02-12 03:21:00,
2013-02-11 19:31:00,40.0,12.0,-100.00,WSW,255,1.0,10.0,31,0.00,,,0.00,0.000000,,2013-02-12 03:31:00,
2013-02-11 19:52:00,37.0,14.0,-100.00,SSE,160,0.0,6.0,38,0.00,,,-99.99,0.000000,,2013-02-12 03:52:00,
2013-02-11 20:01:00,37.0,14.0,-100.00,SSE,160,0.0,6.0,38,0.00,,,-99.99,0.000000,,2013-02-12 04:01:00,
2013-02-11 20:11:00,37.0,14.0,-100.00,SSE,160,0.0,6.0,38,0.00,,,-99.99,0.000000,,2013-02-12 04:11:00,
2013-02-11 20:21:00,37.0,14.0,-100.00,SSE,160,0.0,6.0,38,0.00,,,-99.99,0.000000,,2013-02-12 04:21:00,
2013-02-11 20:31:00,37.0,14.0,-100.00,SSE,160,0.0,6.0,38,0.00,,,-99.99,0.000000,,2013-02-12 04:31:00,
2013-02-11 20:52:00,34.0,16.0,-100.00,NW,320,1.0,5.0,48,0.00,,,0.00,0.000000,,2013-02-12 04:52:00,
2013-02-11 21:01:00,34.0,16.0,-100.00,NW,320,1.0,5.0,48,0.00,,,0.00,0.000000,,2013-02-12 05:01:00,
2013-02-11 21:11:00,34.0,16.0,-100.00,NW,320,1.0,5.0,48,0.00,,,0.00,0.000000,,2013-02-12 05:11:00,
2013-02-11 21:21:00,34.0,16.0,-100.00,NW,320,1.0,5.0,48,0.00,,,0.00,0.000000,,2013-02-12 05:21:00,
2013-02-11 21:31:00,34.0,16.0,-100.00,NW,320,1.0,5.0,48,0.00,,,0.00,0.000000,,2013-02-12 05:31:00,
2013-02-11 21:52:00,33.0,17.0,-100.00,WNW,290,0.0,6.0,51,0.00,,,0.00,0.000000,,2013-02-12 05:52:00,
2013-02-11 22:01:00,33.0,17.0,-100.00,WNW,290,0.0,6.0,51,0.00,,,0.00,0.000000,,2013-02-12 06:01:00,
2013-02-11 22:12:00,33.0,17.0,-100.00,WNW,290,0.0,6.0,51,0.00,,,0.00,0.000000,,2013-02-12 06:12:00,
2013-02-11 22:21:00,33.0,17.0,-100.00,WNW,290,0.0,6.0,51,0.00,,,0.00,0.000000,,2013-02-12 06:21:00,
2013-02-11 22:31:00,33.0,17.0,-100.00,WNW,290,0.0,6.0,51,0.00,,,0.00,0.000000,,2013-02-12 06:31:00,
2013-02-11 22:52:00,37.0,16.0,-100.00,WSW,256,3.0,9.0,42,0.00,,,0.00,0.000000,,2013-02-12 06:52:00,
2013-02-11 23:01:00,37.0,16.0,-100.00,WSW,256,3.0,9.0,42,0.00,,,0.00,0.000000,,2013-02-12 07:01:00,
2013-02-11 23:11:00,37.0,16.0,-100.00,WSW,256,3.0,9.0,42,0.00,,,0.00,0.000000,,2013-02-12 07:11:00,
2013-02-11 23:21:00,37.0,16.0,-100.00,WSW,256,3.0,9.0,42,0.00,,,0.00,0.000000,,2013-02-12 07:21:00,
2013-02-11 23:31:00,37.0,16.0,-100.00,WSW,256,3.0,9.0,42,0.00,,,0.00,0.000000,,2013-02-12 07:31:00,
2013-02-11 23:52:00,38.0,15.0,-100.00,WSW,253,4.0,14.0,39,0.00,,,0.00,0.000000,,2013-02-12 07:52:00,